TimeEST,TemperatureF,Dew PointF,Humidity,Sea Level PressureIn,VisibilityMPH,Wind Direction,Wind SpeedMPH,Gust SpeedMPH,PrecipitationIn,Events,Conditions,WindDirDegrees,DateUTC
12:54 AM,42.1,39.0,89,30.00,10.0,SW,3.5,-,N/A,,Overcast,220,2011-12-22 05:54:00
1:54 AM,42.1,39.0,89,30.01,10.0,Calm,Calm,-,N/A,,Overcast,0,2011-12-22 06:54:00
2:54 AM,39.9,39.0,97,30.03,10.0,Calm,Calm,-,N/A,,Overcast,0,2011-12-22 07:54:00
3:54 AM,39.9,39.0,97,30.06,10.0,Calm,Calm,-,N/A,,Overcast,0,2011-12-22 08:54:00
4:54 AM,39.9,37.9,93,30.05,10.0,Calm,Calm,-,N/A,,Overcast,0,2011-12-22 09:54:00
5:54 AM,37.0,35.1,93,30.07,9.0,Calm,Calm,-,N/A,,Clear,0,2011-12-22 10:54:00
6:54 AM,35.1,35.1,100,30.05,5.0,Calm,Calm,-,N/A,,Clear,0,2011-12-22 11:54:00
8:54 AM,34.0,34.0,100,30.09,3.0,Calm,Calm,-,N/A,,Clear,0,2011-12-22 13:54:00
9:54 AM,37.0,37.0,100,30.10,4.0,Calm,Calm,-,N/A,,Clear,0,2011-12-22 14:54:00
11:54 AM,42.1,39.0,89,30.10,9.0,South,3.5,-,N/A,,Clear,180,2011-12-22 16:54:00
12:54 PM,43.0,39.0,86,30.09,10.0,Calm,Calm,-,N/A,,Partly Cloudy,0,2011-12-22 17:54:00
1:54 PM,43.0,39.0,86,30.06,10.0,Calm,Calm,-,N/A,,Overcast,0,2011-12-22 18:54:00
2:54 PM,43.0,37.9,82,30.06,10.0,Calm,Calm,-,N/A,,Overcast,0,2011-12-22 19:54:00
4:54 PM,42.1,39.9,92,30.04,10.0,NNW,5.8,-,N/A,,Overcast,340,2011-12-22 21:54:00
5:05 PM,42.8,39.2,87,30.03,8.0,North,8.1,-,N/A,,Overcast,350,2011-12-22 22:05:00
5:21 PM,41.0,39.2,93,30.05,8.0,NNW,9.2,-,N/A,,Mostly Cloudy,330,2011-12-22 22:21:00
5:54 PM,39.9,37.9,93,30.09,9.0,NW,6.9,-,N/A,,Overcast,310,2011-12-22 22:54:00
6:36 PM,39.2,37.4,93,30.07,8.0,NNW,8.1,-,N/A,,Overcast,340,2011-12-22 23:36:00
6:54 PM,39.9,37.0,89,30.09,9.0,North,6.9,-,N/A,,Overcast,350,2011-12-22 23:54:00
7:51 PM,39.2,35.6,87,30.09,7.0,Calm,Calm,-,N/A,,Overcast,0,2011-12-23 00:51:00
7:54 PM,39.0,36.0,89,30.11,7.0,Calm,Calm,-,N/A,,Overcast,0,2011-12-23 00:54:00
8:43 PM,39.2,37.4,93,30.12,7.0,NNW,4.6,-,N/A,,Overcast,340,2011-12-23 01:43:00
9:54 PM,39.9,37.0,89,30.14,7.0,North,6.9,-,N/A,,Overcast,360,2011-12-23 02:54:00
10:04 PM,39.2,37.4,93,30.13,8.0,North,5.8,-,N/A,,Overcast,10,2011-12-23 03:04:00
10:54 PM,39.0,37.0,93,30.16,10.0,North,9.2,-,N/A,,Overcast,350,2011-12-23 03:54:00
11:07 PM,39.2,35.6,87,30.15,10.0,North,9.2,-,N/A,,Overcast,360,2011-12-23 04:07:00
11:54 PM,39.0,36.0,89,30.17,10.0,North,6.9,-,N/A,,Overcast,350,2011-12-23 04:54:00